sat.trackr.live / text

‹ back to catalog

STARLINK-31974

NORAD 59885 · 2024-100A

PAYLOAD ACTIVE UNKNOWN

§ Identity

Operator
Country
US
Launch date
2024-05-28
Launch site
AFETR
Launch vehicle
Mass (kg)
RCS (m²)

Purposes: comms

External: N2YO · Heavens-Above · Gunter

§ Orbital elements

Epoch: 2026-05-25T04:05:30.405120Z

Period
94.27 min
Inclination
43.0013°
Eccentricity
0.0001113
Mean motion
15.27586074 rev/d
Perigee alt
482.3 km
Apogee alt
483.8 km
Semi-major
6,861.2 km
B*
3.5919e-5
RAAN
53.4754°
Arg perigee
266.2881°
Mean anomaly
93.7844°
Rev number
11,275

§ Raw data

STARLINK-319741 59885U 24100A   26145.17049080  .00000727  00000+0  35919-4 0  99952 59885  43.0013  53.4754 0001113 266.2881  93.7844 15.27586074112751

JSON: /api/v1/satellites/59885 · /tle

For live sub-satellite position, see the globe view (requires WebGL).

§ Visibility from observer

Set your observer location to see the next 7 days of passes ≥ 10°. The values pass through the URL so the page stays shareable.

No JS? Fill the form by hand. The geolocation button needs JavaScript.